Weather History for Cheyenne, WY

Change the Weather History Date:

Saturday, November 24, 2012

  Actual Average Record
Temperature  
Mean Temperature 53 °F 32 °F  
Max Temperature 60 °F 42 °F 64 °F (1990)
Min Temperature 46 °F 21 °F -16 °F (1993)
Degree Days  
Heating Degree Days 12 33  
Month to date heating degree days 581 682  
Since 1 July heating degree days 1383 1541  
Cooling Degree Days 0 0  
Month to date cooling degree days 0 0  
Year to date cooling degree days 568 348  
Moisture  
Dew Point 7 °F    
Average Humidity 16    
Maximum Humidity 21    
Minimum Humidity 10    
Precipitation  
Precipitation 0.00 in 0.02 in 0.40 in (1944)
Month to date precipitation 0.02 0.48  
Year to date precipitation 9.58 15.34  
Snow  
Snow 0.00 in 0.30 in 5.20 in (2002)
Month to date snowfall 0.4 6.2  
Since 1 July snowfall 10.6 12.5  
Snow Depth 0.00 in    
Sea Level Pressure  
Sea Level Pressure 29.92 in    
Wind  
Wind Speed 23 mph (West)    
Max Wind Speed 37 mph    
Max Gust Speed 48 mph    
Visibility 10 miles    
Events      
T = Trace of Precipitation, MM = Missing Value Source: NWS Daily Summary

Daily Weather History Graph

Daily Weather History Graph

Search for Another Location

Airport:

Trip Planner

Search our weather history database for the weather conditions in past years. The results will help you decide how hot, cold, wet, or windy it might be!

Date:

Astronomy

Nov. 24, 2012 Rise Set
Actual Time 6:58 AM MST 4:33 PM MST
Civil Twilight 6:27 AM MST 5:03 PM MST
Nautical Twilight 5:54 AM MST 5:37 PM MST
Astronomical Twilight 5:21 AM MST 6:10 PM MST
Moon 2:21 PM MST (11/24) 3:15 AM MST (11/24)
Length of Visible Light 10h 36m
Length of Day
9h 35m
Waxing Gibbous, 87% of the Moon is Illuminated
Nov 24
Waxing Gibbous
Nov 28
Full
Dec 6
Last Quarter
Dec 13
New
Dec 19
First Quarter

Hourly Weather History & Observations

Time (MST) Temp. Dew Point Humidity Pressure Visibility Wind Dir Wind Speed Gust Speed Precip Events Conditions
12:53 AM 48.0 °F 9.0 °F 21% 30.07 in 10.0 mi West 24.2 mph 32.2 mph N/A   Clear
1:53 AM 48.9 °F 9.0 °F 20% 30.03 in 10.0 mi West 27.6 mph 35.7 mph N/A   Clear
2:53 AM 48.0 °F 10.0 °F 22% 30.03 in 10.0 mi West 26.5 mph 34.5 mph N/A   Clear
3:53 AM 48.9 °F 9.0 °F 20% 30.02 in 10.0 mi West 24.2 mph - N/A   Clear
4:53 AM 48.9 °F 9.0 °F 20% 30.02 in 10.0 mi West 28.8 mph 35.7 mph N/A   Clear
5:53 AM 48.9 °F 10.0 °F 21% 30.03 in 10.0 mi West 25.3 mph 34.5 mph N/A   Clear
6:53 AM 48.0 °F 10.0 °F 22% 30.04 in 10.0 mi WSW 20.7 mph - N/A   Clear
7:53 AM 48.9 °F 10.0 °F 21% 30.01 in 10.0 mi West 26.5 mph 34.5 mph N/A   Clear
8:53 AM 51.1 °F 10.0 °F 19% 29.99 in 10.0 mi West 21.9 mph 33.4 mph N/A   Clear
9:53 AM 51.1 °F 10.9 °F 20% 30.02 in 10.0 mi West 20.7 mph 31.1 mph N/A   Clear
10:53 AM 55.0 °F 10.0 °F 17% 29.92 in 10.0 mi West 26.5 mph 36.8 mph N/A   Clear
11:53 AM 57.0 °F 9.0 °F 15% 29.86 in 10.0 mi West 31.1 mph 48.3 mph N/A   Clear
12:53 PM 60.1 °F 8.1 °F 13% 29.83 in 10.0 mi West 28.8 mph 38.0 mph N/A   Clear
1:53 PM 57.9 °F 5.0 °F 12% 29.83 in 10.0 mi West 23.0 mph 34.5 mph N/A   Clear
2:53 PM 59.0 °F 3.0 °F 11% 29.82 in 10.0 mi West 24.2 mph 35.7 mph N/A   Clear
3:53 PM 55.0 °F 1.0 °F 11% 29.83 in 10.0 mi West 24.2 mph 29.9 mph N/A   Clear
4:53 PM 53.1 °F 1.9 °F 12% 29.83 in 10.0 mi West 26.5 mph 33.4 mph N/A   Clear
5:53 PM 51.1 °F 3.0 °F 14% 29.84 in 10.0 mi West 27.6 mph 38.0 mph N/A   Clear
6:53 PM 48.9 °F 6.1 °F 18% 29.86 in 10.0 mi West 25.3 mph 33.4 mph N/A   Clear
7:53 PM 48.9 °F 5.0 °F 17% 29.85 in 10.0 mi West 19.6 mph 32.2 mph N/A   Clear
8:53 PM 48.9 °F 6.1 °F 18% 29.85 in 10.0 mi West 16.1 mph - N/A   Clear
9:53 PM 46.9 °F 8.1 °F 21% 29.86 in 10.0 mi West 13.8 mph - N/A   Partly Cloudy
10:53 PM 48.0 °F 7.0 °F 19% 29.85 in 10.0 mi West 3.5 mph - N/A   Overcast
11:53 PM 48.0 °F 8.1 °F 20% 29.83 in 10.0 mi West 17.3 mph - N/A   Mostly Cloudy